ISS (NAUKA)

Last updated on Mon Sep 15 2025 00:02:11 GMT+0000 (Coordinated Universal Time)

1 49044U 21066A 25257.15843506 .00007863 00000+0 14416-3 0 9991 2 49044 51.6331 226.0896 0004302 337.3187 22.7612 15.50283896230446
UTC large
Height (km)
Speed (km/s)
/
Latitude / Longitude
Inclination (degrees)
Orbital Period (minutes)
Azimuth
Elevation
Range (km)
Doppler Factor

Next 0 passes for location: London (51.5072 / 0.1276)

Sorry there are no passes over London.